Location: Caltech
(34.1382°N, 118.1253°W)
Time: 23:17:30
(UTC-07:00)

Tiros 1 despin weight - Visible Passes

Search period start: 30 October 2014 00:00
Search period end: 08 November 2014 23:00
Orbit: 600 x 652 km, 48.2° (Epoch: 29 October)

Date Brightness Start Highest point End Pass type
(mag) Time Alt. Az. Time Alt. Az. Time Alt. Az.
30 Oct ? 04:46:00 29° SE 04:46:06 29° SE 04:50:10 10° ENE visible
30 Oct ? 06:23:17 11° WSW 06:27:42 47° NNW 06:32:13 10° NE visible
31 Oct ? 05:05:09 64° SE 05:05:09 64° SE 05:09:43 10° ENE visible
31 Oct ? 06:43:02 10° W 06:47:05 28° NNW 06:51:07 10° NE visible
01 Nov ? 05:24:05 62° NW 05:24:11 63° NW 05:28:50 10° NE visible
02 Nov ? 03:05:37 13° ENE 03:05:37 13° ENE 03:06:08 10° ENE visible
02 Nov ? 04:42:52 33° NW 04:43:28 34° NNW 04:47:45 10° NE visible
03 Nov ? 03:24:17 17° NE 03:24:17 17° NE 03:25:22 10° NE visible
03 Nov ? 05:01:31 20° NW 05:02:55 22° NNW 05:06:36 10° NNE visible
04 Nov ? 03:42:49 19° NNE 03:42:49 19° NNE 03:44:20 10° NE visible
04 Nov ? 05:20:03 12° NW 05:22:31 17° NNW 05:25:32 10° NNE visible
05 Nov ? 04:01:17 19° NNE 04:01:17 19° NNE 04:03:11 10° NE visible
05 Nov ? 05:39:38 10° NW 05:42:12 14° N 05:44:45 10° NNE visible
06 Nov ? 04:19:40 18° N 04:19:40 18° N 04:22:02 10° NNE visible
07 Nov ? 04:38:00 15° NNW 04:38:20 15° N 04:41:04 10° NNE visible
08 Nov ? 04:56:18 12° NNW 04:58:02 14° N 05:00:34 10° NE visible
